01/10/2015,	00:00:00,	21.41,	21.10,	1028.08,	47.70,	0.45,	1173.34,	683.72,	1613.20,	224.31,	4.64,	1.15,	4.54,	1.02,	5.79,	1.13,	6.55,	1.31,	1.14,	0.52,	0.92,	0.41,	1.03,	0.51,	1.10,	0.50,	124.35,	306.52,	170.68,	286.67,	168.32,	278.06,	180.56,	309.49,	167.57
01/10/2015,	00:15:00,	21.44,	21.20,	1028.20,	47.81,	0.49,	1170.36,	681.83,	1608.61,	224.09,	4.60,	1.13,	4.44,	1.05,	5.87,	1.07,	6.49,	1.25,	1.18,	0.54,	0.92,	0.44,	0.91,	0.45,	1.16,	0.55,	123.68,	304.49,	170.36,	285.82,	167.66,	278.00,	179.48,	309.48,	167.65
01/10/2015,	00:30:00,	21.48,	21.30,	1028.56,	47.49,	0.43,	1165.75,	680.82,	1603.04,	223.93,	4.68,	1.07,	4.45,	1.00,	5.84,	1.09,	6.41,	1.20,	1.14,	0.47,	0.87,	0.39,	0.91,	0.44,	1.12,	0.53,	123.44,	301.47,	169.83,	285.72,	167.97,	277.84,	178.78,	308.07,	167.34
01/10/2015,	00:45:00,	21.48,	21.40,	1028.69,	47.72,	0.45,	1166.22,	682.30,	1604.78,	224.05,	4.58,	1.05,	4.55,	0.99,	5.82,	1.09,	6.52,	1.23,	1.06,	0.46,	0.93,	0.41,	0.96,	0.46,	1.13,	0.53,	124.23,	301.09,	170.39,	285.44,	167.58,	277.54,	179.80,	309.41,	167.79
01/10/2015,	01:00:00,	21.56,	21.60,	1028.63,	47.77,	0.48,	1163.93,	684.02,	1604.37,	223.85,	4.64,	1.11,	4.42,	0.97,	5.71,	1.06,	6.62,	1.20,	1.10,	0.47,	0.93,	0.41,	1.08,	0.52,	1.12,	0.51,	123.88,	299.27,	170.24,	285.66,	169.03,	277.64,	179.44,	308.75,	168.46
01/10/2015,	01:15:00,	21.58,	21.80,	1028.56,	47.49,	0.47,	1169.44,	685.88,	1610.63,	224.98,	4.65,	1.07,	4.50,	0.99,	5.90,	1.08,	6.41,	1.24,	1.12,	0.49,	0.88,	0.41,	1.00,	0.48,	1.11,	0.48,	124.25,	301.91,	171.03,	285.95,	169.34,	279.05,	180.35,	309.92,	168.35
01/10/2015,	01:30:00,	21.56,	21.90,	1028.69,	48.00,	0.42,	1162.00,	682.67,	1601.21,	223.91,	4.58,	1.10,	4.40,	1.01,	5.88,	1.12,	6.48,	1.20,	1.11,	0.49,	0.92,	0.41,	0.92,	0.44,	1.09,	0.46,	124.14,	298.94,	169.89,	284.31,	168.56,	277.03,	179.35,	309.06,	168.13
01/10/2015,	01:45:00,	21.68,	22.10,	1028.56,	47.41,	0.45,	1156.92,	679.23,	1593.95,	222.86,	4.51,	1.05,	4.47,	1.01,	5.75,	1.06,	6.36,	1.22,	1.11,	0.49,	0.88,	0.39,	0.98,	0.49,	1.14,	0.51,	123.15,	296.57,	169.12,	284.04,	167.58,	275.77,	178.35,	307.84,	167.49
01/10/2015,	02:00:00,	21.63,	22.20,	1028.87,	47.84,	0.46,	1159.52,	684.04,	1599.07,	224.78,	4.64,	1.13,	4.49,	0.98,	5.71,	1.11,	6.70,	1.26,	1.18,	0.55,	0.92,	0.43,	1.05,	0.50,	1.09,	0.50,	123.95,	297.13,	170.18,	284.52,	168.43,	277.83,	180.56,	307.53,	168.13
01/10/2015,	02:15:00,	21.68,	22.30,	1028.87,	47.52,	0.46,	1156.80,	681.57,	1595.30,	223.55,	4.61,	1.10,	4.36,	1.00,	5.98,	1.14,	6.37,	1.21,	1.18,	0.51,	0.89,	0.41,	1.03,	0.51,	1.13,	0.50,	123.85,	297.33,	170.09,	283.84,	168.22,	275.94,	178.57,	307.14,	167.90
01/10/2015,	02:30:00,	21.70,	22.50,	1028.87,	47.80,	0.46,	1160.22,	683.84,	1601.05,	223.49,	4.71,	1.11,	4.50,	0.98,	5.78,	1.19,	6.34,	1.17,	1.12,	0.48,	0.84,	0.39,	1.10,	0.54,	1.13,	0.50,	124.15,	297.11,	170.21,	285.12,	168.93,	276.79,	180.20,	308.58,	167.75
01/10/2015,	02:45:00,	21.70,	22.60,	1028.99,	47.45,	0.45,	1157.42,	682.59,	1596.45,	223.90,	4.68,	1.10,	4.43,	1.01,	5.88,	1.11,	6.47,	1.21,	1.10,	0.47,	0.88,	0.39,	1.01,	0.46,	1.10,	0.51,	123.51,	297.62,	170.54,	283.38,	168.21,	276.60,	179.26,	307.06,	167.83
01/10/2015,	03:00:00,	21.70,	22.70,	1028.81,	48.09,	0.47,	1165.17,	683.56,	1604.48,	224.56,	4.66,	1.11,	4.48,	1.02,	5.94,	1.09,	6.43,	1.18,	1.04,	0.46,	0.89,	0.40,	0.98,	0.45,	1.15,	0.52,	124.11,	298.71,	170.76,	285.32,	167.98,	278.21,	178.54,	310.28,	169.49
01/10/2015,	03:15:00,	21.70,	22.80,	1028.38,	47.73,	0.46,	1158.88,	681.92,	1597.43,	223.98,	4.54,	1.08,	4.37,	0.98,	5.79,	1.11,	6.50,	1.19,	1.11,	0.49,	0.84,	0.39,	0.99,	0.48,	1.10,	0.49,	124.04,	297.56,	170.85,	284.09,	168.32,	276.29,	178.65,	308.18,	167.24
01/10/2015,	03:30:00,	21.85,	22.90,	1028.44,	48.39,	0.45,	1161.14,	683.74,	1599.90,	225.28,	4.59,	1.07,	4.50,	1.02,	5.87,	1.12,	6.47,	1.24,	1.18,	0.53,	0.94,	0.42,	0.98,	0.44,	1.16,	0.53,	124.87,	298.35,	171.12,	283.79,	167.95,	277.37,	179.58,	308.99,	168.42
01/10/2015,	03:45:00,	21.78,	23.00,	1028.32,	47.99,	0.48,	1159.72,	683.91,	1599.07,	225.07,	4.58,	1.14,	4.61,	1.05,	5.88,	1.09,	6.36,	1.25,	1.10,	0.51,	0.88,	0.40,	1.05,	0.54,	1.16,	0.57,	124.58,	297.17,	170.73,	285.00,	169.29,	276.33,	178.92,	308.55,	168.28
01/10/2015,	04:00:00,	21.83,	23.00,	1028.14,	47.69,	0.41,	1152.19,	681.59,	1590.04,	224.02,	4.46,	0.99,	4.46,	0.97,	5.78,	1.05,	6.60,	1.17,	1.16,	0.47,	0.91,	0.41,	0.94,	0.44,	1.01,	0.44,	124.26,	295.73,	170.14,	282.37,	168.10,	274.51,	178.55,	306.81,	167.91
01/10/2015,	04:15:00,	21.90,	23.10,	1028.14,	47.73,	0.46,	1151.45,	682.16,	1589.87,	224.24,	4.50,	1.07,	4.57,	1.00,	5.77,	1.10,	6.39,	1.19,	1.15,	0.50,	0.86,	0.39,	0.99,	0.47,	1.11,	0.50,	124.32,	296.35,	170.30,	281.84,	168.16,	274.79,	179.13,	305.99,	167.78
01/10/2015,	04:30:00,	21.92,	23.20,	1028.08,	47.83,	0.43,	1149.70,	680.18,	1586.31,	224.16,	4.48,	1.00,	4.43,	1.05,	5.80,	1.09,	6.40,	1.22,	1.12,	0.47,	0.90,	0.40,	0.96,	0.47,	1.17,	0.53,	124.19,	294.65,	169.97,	282.63,	168.37,	274.33,	177.81,	305.39,	167.21
01/10/2015,	04:45:00,	21.92,	23.20,	1028.08,	48.29,	0.44,	1155.32,	684.35,	1595.59,	224.64,	4.50,	1.12,	4.45,	1.01,	5.83,	1.11,	6.48,	1.23,	1.08,	0.45,	0.85,	0.38,	1.01,	0.48,	1.14,	0.50,	124.67,	296.44,	171.43,	283.67,	169.12,	275.96,	179.66,	306.60,	167.44
01/10/2015,	05:00:00,	21.97,	23.30,	1028.20,	47.62,	0.46,	1153.24,	682.03,	1591.60,	224.26,	4.58,	1.09,	4.56,	1.06,	5.82,	1.13,	6.43,	1.21,	1.09,	0.51,	0.92,	0.43,	0.97,	0.46,	1.04,	0.48,	123.88,	296.02,	170.71,	282.49,	168.22,	275.34,	178.23,	306.85,	168.17
01/10/2015,	05:15:00,	22.02,	23.30,	1028.20,	48.26,	0.46,	1156.50,	683.40,	1595.69,	224.45,	4.66,	1.12,	4.48,	1.03,	5.96,	1.13,	6.47,	1.18,	1.19,	0.51,	0.90,	0.42,	1.00,	0.50,	1.14,	0.51,	125.01,	296.19,	170.97,	284.06,	168.83,	275.74,	178.82,	307.89,	168.05
01/10/2015,	05:30:00,	22.00,	23.40,	1028.32,	47.88,	0.46,	1150.06,	681.50,	1588.22,	224.03,	4.50,	1.13,	4.49,	1.02,	5.79,	1.07,	6.34,	1.22,	1.10,	0.49,	0.95,	0.44,	1.00,	0.50,	1.18,	0.54,	124.52,	294.34,	169.52,	282.63,	168.05,	274.05,	179.42,	306.47,	167.86
01/10/2015,	05:45:00,	22.07,	23.40,	1028.02,	47.60,	0.44,	1151.75,	684.69,	1592.23,	224.69,	4.57,	1.10,	4.42,	1.06,	5.81,	1.11,	6.48,	1.17,	1.15,	0.50,	0.92,	0.41,	1.07,	0.50,	1.05,	0.48,	123.91,	296.57,	170.18,	282.11,	168.84,	274.41,	179.33,	306.13,	169.58
01/10/2015,	06:00:00,	22.02,	23.40,	1028.26,	47.60,	0.47,	1149.69,	682.64,	1588.19,	224.56,	4.53,	1.05,	4.47,	0.99,	5.81,	1.08,	6.55,	1.17,	1.11,	0.49,	0.91,	0.43,	0.97,	0.48,	1.06,	0.48,	123.91,	295.04,	170.94,	282.09,	168.66,	274.40,	178.73,	305.50,	167.47
01/10/2015,	06:15:00,	22.02,	23.40,	1028.44,	47.77,	0.48,	1149.37,	681.55,	1588.29,	223.06,	4.60,	1.14,	4.56,	1.07,	5.91,	1.11,	6.38,	1.24,	1.18,	0.54,	0.93,	0.43,	1.02,	0.48,	1.15,	0.53,	124.52,	295.31,	170.88,	280.90,	168.50,	273.36,	177.49,	307.28,	168.05
01/10/2015,	06:30:00,	22.09,	23.30,	1028.63,	47.21,	0.44,	1152.28,	683.77,	1591.96,	224.61,	4.58,	1.08,	4.42,	0.99,	5.93,	1.15,	6.39,	1.22,	1.15,	0.51,	0.90,	0.42,	0.99,	0.45,	1.05,	0.46,	122.85,	295.10,	170.72,	283.04,	169.03,	275.59,	178.97,	305.91,	168.27
01/10/2015,	06:45:00,	22.19,	23.30,	1028.63,	47.59,	0.45,	1149.37,	680.78,	1587.46,	223.18,	4.52,	1.04,	4.48,	1.03,	5.78,	1.06,	6.40,	1.18,	1.13,	0.46,	0.87,	0.38,	1.02,	0.47,	1.01,	0.44,	123.60,	294.91,	170.59,	281.37,	167.41,	274.77,	178.46,	305.53,	167.50
01/10/2015,	07:00:00,	22.17,	23.30,	1028.50,	47.62,	0.46,	1149.63,	683.15,	1589.27,	224.14,	4.49,	1.07,	4.42,	0.99,	5.91,	1.10,	6.42,	1.27,	1.11,	0.47,	0.88,	0.39,	1.03,	0.54,	1.07,	0.48,	123.81,	295.19,	170.77,	281.46,	168.48,	274.31,	178.67,	305.90,	168.56
01/10/2015,	07:15:00,	22.17,	23.20,	1028.75,	47.41,	0.48,	1149.12,	682.13,	1587.83,	223.80,	4.58,	1.15,	4.47,	1.06,	5.93,	1.12,	6.59,	1.25,	1.10,	0.49,	0.97,	0.46,	1.00,	0.51,	1.13,	0.50,	123.05,	295.82,	170.34,	280.85,	168.72,	274.50,	178.28,	305.33,	168.09
01/10/2015,	07:30:00,	22.27,	23.10,	1028.75,	47.76,	0.51,	1150.91,	683.08,	1590.10,	224.60,	4.49,	1.11,	4.44,	1.05,	5.69,	1.16,	6.69,	1.30,	1.15,	0.53,	0.88,	0.42,	1.01,	0.51,	1.19,	0.55,	123.94,	294.43,	170.29,	281.81,	168.38,	275.41,	179.31,	306.69,	168.43
01/10/2015,	07:45:00,	22.27,	23.00,	1028.81,	47.34,	0.43,	1153.39,	684.03,	1593.31,	224.30,	4.55,	1.06,	4.53,	1.02,	5.97,	1.08,	6.42,	1.19,	1.13,	0.48,	0.97,	0.41,	1.00,	0.46,	1.11,	0.53,	123.46,	295.40,	169.99,	283.88,	169.29,	275.10,	179.31,	306.27,	168.69
01/10/2015,	08:00:00,	22.24,	22.90,	1029.17,	47.84,	0.46,	1147.17,	679.44,	1583.55,	223.33,	4.64,	1.10,	4.55,	1.05,	5.84,	1.09,	6.44,	1.20,	1.09,	0.49,	0.93,	0.42,	1.07,	0.50,	1.08,	0.49,	124.54,	293.49,	169.08,	282.20,	168.51,	273.64,	177.39,	305.07,	167.67
01/10/2015,	08:15:00,	22.24,	22.70,	1029.11,	47.38,	0.47,	1151.29,	682.28,	1589.98,	223.55,	4.74,	1.14,	4.62,	1.00,	5.92,	1.11,	6.60,	1.20,	1.12,	0.49,	0.93,	0.41,	1.02,	0.49,	1.05,	0.48,	123.72,	295.07,	171.10,	282.81,	168.10,	274.87,	178.04,	305.98,	168.29
01/10/2015,	08:30:00,	22.29,	22.60,	1029.11,	48.02,	0.45,	1152.35,	682.40,	1591.35,	223.92,	4.63,	1.08,	4.48,	1.03,	5.83,	1.12,	6.40,	1.22,	1.12,	0.47,	0.91,	0.45,	1.00,	0.49,	1.08,	0.51,	123.92,	294.87,	170.15,	283.70,	168.98,	275.10,	178.47,	305.98,	168.08
01/10/2015,	08:45:00,	22.34,	22.60,	1028.99,	47.27,	0.46,	1144.70,	678.14,	1580.30,	223.12,	4.62,	1.12,	4.41,	1.04,	5.82,	1.08,	6.45,	1.24,	1.10,	0.49,	0.90,	0.40,	0.97,	0.44,	1.07,	0.49,	123.41,	293.35,	169.68,	280.94,	167.95,	272.88,	177.27,	304.82,	166.46
01/10/2015,	09:00:00,	22.27,	22.40,	1029.17,	47.31,	0.46,	1150.95,	683.15,	1589.95,	224.52,	4.57,	1.06,	4.52,	1.00,	5.89,	1.19,	6.53,	1.32,	1.17,	0.50,	0.91,	0.39,	1.02,	0.51,	1.09,	0.49,	123.79,	294.36,	171.10,	283.00,	168.78,	275.18,	178.74,	305.84,	167.96
01/10/2015,	09:15:00,	22.34,	22.50,	1029.30,	47.53,	0.43,	1153.38,	681.99,	1592.21,	223.60,	4.62,	1.06,	4.32,	0.92,	5.85,	1.12,	6.41,	1.20,	1.12,	0.47,	0.91,	0.41,	1.01,	0.47,	1.06,	0.45,	123.62,	294.84,	170.00,	283.70,	168.19,	276.07,	179.32,	305.93,	167.74
01/10/2015,	09:30:00,	22.34,	22.40,	1029.60,	47.51,	0.49,	1148.46,	680.15,	1585.71,	223.44,	4.60,	1.14,	4.52,	1.02,	5.82,	1.16,	6.52,	1.28,	1.09,	0.51,	0.90,	0.45,	1.03,	0.51,	1.16,	0.50,	123.65,	293.67,	170.05,	282.57,	168.31,	273.72,	178.02,	306.01,	167.12
01/10/2015,	09:45:00,	22.44,	22.20,	1029.42,	47.21,	0.47,	1147.41,	679.73,	1584.64,	222.95,	4.54,	1.05,	4.44,	0.99,	5.85,	1.12,	6.50,	1.21,	1.09,	0.47,	0.94,	0.44,	1.00,	0.49,	1.11,	0.49,	123.48,	293.26,	169.27,	281.92,	168.02,	274.01,	179.04,	305.49,	166.67
01/10/2015,	10:00:00,	22.46,	22.20,	1029.85,	47.39,	0.43,	1150.38,	681.57,	1588.46,	223.69,	4.71,	1.03,	4.54,	1.01,	5.73,	1.07,	6.52,	1.22,	1.13,	0.49,	0.88,	0.39,	0.99,	0.47,	1.13,	0.50,	123.65,	293.76,	170.45,	282.54,	168.21,	274.82,	177.71,	306.57,	168.36
01/10/2015,	10:15:00,	22.41,	22.10,	1030.03,	47.36,	0.46,	1150.94,	679.75,	1588.63,	222.78,	4.47,	1.06,	4.50,	1.05,	5.74,	1.11,	6.36,	1.22,	1.12,	0.48,	0.94,	0.42,	0.99,	0.48,	1.15,	0.55,	123.06,	293.50,	169.65,	282.09,	168.04,	275.55,	178.18,	307.28,	167.22
01/10/2015,	10:30:00,	22.44,	22.00,	1030.27,	47.42,	0.46,	1144.14,	677.81,	1579.80,	222.60,	4.56,	1.13,	4.66,	1.08,	5.82,	1.08,	6.42,	1.23,	1.10,	0.50,	0.88,	0.42,	1.06,	0.50,	1.14,	0.51,	123.09,	292.87,	168.81,	281.40,	167.47,	273.11,	178.14,	304.03,	166.74
01/10/2015,	10:45:00,	22.51,	22.00,	1030.21,	47.21,	0.46,	1142.99,	676.50,	1577.94,	222.00,	4.53,	1.04,	4.54,	0.99,	5.79,	1.10,	6.38,	1.21,	1.12,	0.49,	0.90,	0.40,	1.04,	0.49,	1.08,	0.46,	123.01,	292.00,	168.85,	281.23,	167.30,	272.84,	177.18,	304.21,	166.40
01/10/2015,	11:00:00,	22.41,	21.90,	1030.52,	46.66,	0.47,	1146.08,	678.68,	1582.20,	223.07,	4.61,	1.09,	4.42,	1.00,	5.89,	1.09,	6.36,	1.14,	1.14,	0.51,	0.86,	0.40,	0.98,	0.48,	1.11,	0.50,	122.05,	292.71,	168.69,	281.71,	167.61,	274.32,	178.11,	304.65,	167.54
01/10/2015,	11:15:00,	22.44,	22.00,	1030.58,	46.96,	0.47,	1146.07,	676.56,	1581.05,	222.38,	4.53,	1.08,	4.48,	1.05,	5.73,	1.12,	6.34,	1.19,	1.11,	0.51,	0.88,	0.41,	1.00,	0.49,	1.08,	0.50,	123.01,	293.13,	168.51,	282.15,	167.03,	274.48,	177.28,	303.74,	167.04
01/10/2015,	11:30:00,	22.41,	21.90,	1030.76,	47.36,	0.45,	1143.70,	675.17,	1577.99,	221.57,	4.50,	1.07,	4.40,	1.00,	5.66,	1.07,	6.45,	1.22,	1.12,	0.51,	0.90,	0.42,	1.05,	0.50,	1.10,	0.47,	123.21,	292.84,	168.98,	281.53,	166.82,	272.84,	176.68,	303.81,	165.95
01/10/2015,	11:45:00,	22.41,	21.70,	1030.70,	47.19,	0.47,	1144.16,	674.92,	1578.31,	221.45,	4.50,	1.09,	4.49,	0.99,	5.78,	1.08,	6.36,	1.22,	1.13,	0.51,	0.94,	0.41,	1.00,	0.49,	1.09,	0.51,	123.18,	292.99,	168.54,	281.00,	166.42,	273.66,	176.91,	303.86,	166.27
01/10/2015,	12:00:00,	22.41,	21.80,	1030.76,	47.55,	0.46,	1150.15,	677.21,	1585.29,	222.60,	4.58,	1.11,	4.45,	0.99,	5.84,	1.15,	6.53,	1.21,	1.12,	0.49,	0.87,	0.42,	0.98,	0.49,	1.11,	0.52,	123.28,	295.05,	169.53,	282.39,	166.56,	273.98,	177.00,	306.15,	167.40
01/10/2015,	12:15:00,	22.49,	21.60,	1030.70,	47.27,	0.44,	1154.55,	680.91,	1592.22,	223.69,	4.70,	1.07,	4.44,	1.01,	5.82,	1.15,	6.45,	1.24,	1.09,	0.45,	0.87,	0.41,	1.04,	0.51,	1.08,	0.51,	123.04,	295.99,	169.75,	283.38,	168.02,	275.32,	179.05,	307.17,	167.33
01/10/2015,	12:30:00,	22.39,	21.70,	1030.64,	47.55,	0.44,	1150.11,	680.11,	1587.13,	223.67,	4.52,	1.07,	4.50,	1.00,	5.87,	1.11,	6.39,	1.20,	1.15,	0.52,	0.89,	0.43,	0.97,	0.47,	1.07,	0.49,	123.39,	295.49,	170.37,	283.01,	167.31,	275.39,	179.00,	303.62,	166.69
01/10/2015,	12:45:00,	22.41,	21.50,	1030.58,	46.78,	0.44,	1151.40,	678.43,	1588.81,	221.60,	4.59,	1.08,	4.48,	0.97,	5.62,	1.03,	6.45,	1.23,	1.13,	0.52,	0.88,	0.39,	0.96,	0.48,	1.08,	0.46,	122.62,	294.38,	168.70,	283.51,	167.86,	273.94,	178.23,	306.96,	166.89
01/10/2015,	13:00:00,	22.41,	21.50,	1030.46,	47.42,	0.47,	1153.80,	676.62,	1589.05,	221.94,	4.53,	1.09,	4.50,	1.02,	5.80,	1.08,	6.49,	1.22,	1.10,	0.50,	0.89,	0.39,	0.98,	0.49,	1.08,	0.52,	123.09,	294.96,	168.89,	283.75,	167.41,	275.39,	177.66,	307.09,	165.93
01/10/2015,	13:15:00,	22.39,	21.50,	1030.76,	47.34,	0.47,	1158.53,	682.72,	1597.63,	223.85,	4.63,	1.08,	4.51,	1.06,	5.93,	1.09,	6.50,	1.25,	1.12,	0.52,	0.93,	0.44,	1.05,	0.50,	1.05,	0.46,	122.78,	296.95,	170.68,	284.74,	168.77,	276.03,	179.48,	308.14,	167.03
01/10/2015,	13:30:00,	22.34,	21.40,	1030.52,	47.75,	0.39,	1151.19,	678.35,	1587.65,	222.38,	4.62,	1.06,	4.47,	0.98,	5.78,	1.08,	6.42,	1.21,	1.17,	0.50,	0.85,	0.39,	0.97,	0.49,	1.01,	0.46,	123.77,	294.99,	168.89,	283.28,	167.59,	274.23,	178.11,	305.95,	167.04
01/10/2015,	13:45:00,	22.27,	21.30,	1030.40,	47.24,	0.46,	1159.55,	680.16,	1597.06,	223.02,	4.64,	1.09,	4.51,	1.02,	5.89,	1.05,	6.32,	1.18,	1.17,	0.54,	0.93,	0.43,	0.97,	0.47,	1.14,	0.52,	123.28,	296.38,	169.68,	285.11,	167.10,	276.14,	178.63,	309.30,	168.07
01/10/2015,	14:00:00,	22.31,	21.20,	1030.46,	47.44,	0.46,	1154.65,	677.13,	1590.50,	222.02,	4.65,	1.15,	4.54,	1.07,	5.62,	1.07,	6.38,	1.22,	1.12,	0.50,	0.84,	0.40,	1.01,	0.50,	1.17,	0.55,	123.32,	295.31,	169.17,	283.45,	167.17,	275.49,	177.83,	307.87,	166.20
01/10/2015,	14:15:00,	22.24,	21.20,	1030.58,	47.26,	0.47,	1157.94,	676.89,	1593.53,	221.90,	4.46,	1.09,	4.46,	1.01,	5.80,	1.08,	6.38,	1.18,	1.21,	0.55,	0.90,	0.41,	1.01,	0.47,	1.13,	0.52,	122.74,	296.31,	168.81,	284.31,	166.88,	275.32,	177.50,	309.44,	166.92
01/10/2015,	14:30:00,	22.29,	21.20,	1030.52,	48.04,	0.48,	1156.44,	677.12,	1591.26,	223.04,	4.61,	1.13,	4.46,	1.00,	5.75,	1.12,	6.38,	1.22,	1.13,	0.51,	0.86,	0.38,	0.99,	0.52,	1.12,	0.50,	123.71,	294.90,	168.31,	285.57,	167.37,	275.23,	178.12,	308.13,	166.71
01/10/2015,	14:45:00,	22.29,	21.10,	1030.52,	47.67,	0.47,	1155.71,	677.87,	1591.47,	222.60,	4.62,	1.05,	4.43,	1.01,	5.71,	1.06,	6.40,	1.16,	1.15,	0.49,	0.94,	0.45,	1.04,	0.49,	1.06,	0.51,	123.92,	295.92,	169.26,	283.97,	166.98,	274.87,	178.28,	308.27,	166.57
01/10/2015,	15:00:00,	22.22,	21.10,	1030.52,	47.72,	0.40,	1159.06,	679.87,	1596.93,	222.44,	4.63,	1.05,	4.52,	0.99,	5.72,	1.11,	6.45,	1.21,	1.12,	0.48,	0.84,	0.39,	0.98,	0.44,	1.05,	0.45,	123.52,	296.64,	170.07,	283.80,	167.44,	276.27,	177.92,	309.70,	167.66
01/10/2015,	15:15:00,	22.17,	21.00,	1030.40,	46.99,	0.44,	1162.88,	678.78,	1599.41,	222.92,	4.62,	1.10,	4.51,	1.06,	5.78,	1.08,	6.44,	1.27,	1.12,	0.52,	0.89,	0.42,	1.00,	0.48,	1.01,	0.46,	123.17,	297.32,	169.23,	285.09,	167.28,	277.06,	178.09,	310.83,	167.49
01/10/2015,	15:30:00,	22.19,	21.00,	1030.33,	47.09,	0.45,	1161.01,	677.24,	1597.00,	221.81,	4.62,	1.11,	4.41,	0.97,	5.65,	1.06,	6.41,	1.17,	1.15,	0.49,	0.88,	0.40,	0.99,	0.46,	1.10,	0.48,	122.56,	297.13,	169.63,	285.17,	166.58,	275.90,	178.26,	310.15,	166.06
01/10/2015,	15:45:00,	22.17,	20.90,	1030.09,	47.48,	0.45,	1164.10,	680.47,	1601.38,	223.70,	4.64,	1.10,	4.39,	1.02,	5.85,	1.08,	6.44,	1.20,	1.09,	0.48,	0.89,	0.41,	1.03,	0.50,	1.10,	0.50,	122.98,	297.54,	169.98,	285.55,	167.54,	277.06,	178.77,	311.25,	167.54
01/10/2015,	16:00:00,	22.09,	20.90,	1029.85,	46.90,	0.48,	1162.75,	677.57,	1598.90,	221.76,	4.63,	1.09,	4.49,	1.01,	5.78,	1.07,	6.36,	1.14,	1.14,	0.48,	0.91,	0.41,	1.08,	0.52,	1.16,	0.56,	122.40,	296.61,	168.98,	286.74,	166.71,	275.80,	177.92,	311.00,	167.25
01/10/2015,	16:15:00,	22.09,	20.80,	1029.66,	47.75,	0.45,	1164.41,	680.00,	1602.77,	222.16,	4.46,	1.13,	4.58,	1.04,	5.92,	1.13,	6.51,	1.25,	1.10,	0.47,	0.86,	0.41,	1.02,	0.50,	1.12,	0.49,	123.75,	297.29,	169.62,	285.51,	167.14,	276.55,	179.00,	312.47,	167.57
01/10/2015,	16:30:00,	22.07,	20.70,	1029.60,	47.17,	0.49,	1165.68,	681.23,	1603.48,	223.86,	4.64,	1.17,	4.58,	1.07,	5.98,	1.16,	6.40,	1.26,	1.15,	0.53,	0.90,	0.44,	0.98,	0.47,	1.15,	0.51,	123.07,	297.34,	170.09,	286.30,	167.41,	277.44,	178.79,	312.19,	168.34
01/10/2015,	16:45:00,	21.95,	20.60,	1029.48,	47.08,	0.48,	1168.90,	681.25,	1607.81,	222.60,	4.65,	1.12,	4.55,	1.00,	5.83,	1.16,	6.57,	1.23,	1.15,	0.49,	0.94,	0.44,	1.02,	0.49,	1.07,	0.51,	122.62,	298.04,	170.16,	287.93,	167.56,	277.69,	178.77,	312.74,	168.10
01/10/2015,	17:00:00,	21.97,	20.70,	1029.66,	47.44,	0.44,	1165.10,	679.16,	1601.67,	223.02,	4.57,	1.10,	4.52,	1.01,	5.88,	1.10,	6.45,	1.17,	1.09,	0.48,	0.88,	0.41,	0.98,	0.45,	1.03,	0.48,	123.66,	296.53,	169.40,	286.57,	166.99,	277.66,	178.50,	311.64,	167.51
01/10/2015,	17:15:00,	21.95,	20.70,	1029.60,	47.11,	0.46,	1162.22,	678.02,	1598.56,	222.06,	4.59,	1.17,	4.51,	0.97,	5.89,	1.15,	6.52,	1.24,	1.17,	0.53,	0.96,	0.47,	0.99,	0.50,	1.14,	0.50,	123.50,	296.88,	168.75,	284.75,	166.97,	276.59,	178.80,	311.55,	166.92
01/10/2015,	17:30:00,	21.87,	20.60,	1029.42,	47.68,	0.46,	1163.65,	680.78,	1602.28,	222.52,	4.59,	1.05,	4.47,	1.00,	5.72,	1.08,	6.51,	1.27,	1.18,	0.52,	0.89,	0.40,	1.10,	0.53,	1.15,	0.53,	123.10,	296.67,	169.80,	285.96,	167.65,	277.27,	179.49,	311.26,	167.13
01/10/2015,	17:45:00,	21.83,	20.60,	1029.36,	47.27,	0.44,	1163.96,	679.31,	1600.89,	222.83,	4.61,	1.08,	4.44,	1.04,	5.79,	1.10,	6.55,	1.24,	1.03,	0.46,	0.86,	0.36,	1.04,	0.51,	1.09,	0.50,	123.35,	297.21,	169.67,	285.53,	166.75,	276.94,	178.89,	311.65,	167.27
01/10/2015,	18:00:00,	21.78,	20.50,	1029.42,	47.79,	0.43,	1167.36,	680.51,	1605.19,	222.77,	4.76,	1.08,	4.49,	0.99,	5.80,	1.03,	6.44,	1.13,	1.15,	0.47,	0.91,	0.43,	1.04,	0.49,	1.03,	0.43,	123.74,	297.74,	170.05,	286.62,	168.04,	278.10,	178.91,	312.21,	166.72
01/10/2015,	18:15:00,	21.75,	20.40,	1029.72,	47.87,	0.45,	1165.91,	682.12,	1604.94,	223.39,	4.69,	1.10,	4.61,	1.08,	5.75,	1.12,	6.50,	1.26,	1.16,	0.51,	0.99,	0.43,	1.01,	0.49,	1.15,	0.53,	123.67,	297.07,	169.85,	285.94,	168.49,	277.70,	179.76,	312.71,	167.38
01/10/2015,	18:30:00,	21.75,	20.50,	1029.85,	47.70,	0.44,	1165.73,	681.98,	1605.07,	222.81,	4.54,	1.09,	4.57,	1.05,	5.96,	1.14,	6.61,	1.22,	1.17,	0.53,	0.92,	0.43,	1.05,	0.51,	1.11,	0.51,	123.77,	297.46,	169.90,	287.16,	167.79,	277.81,	180.06,	310.81,	167.52
01/10/2015,	18:45:00,	21.75,	20.50,	1029.91,	48.09,	0.44,	1164.71,	680.04,	1602.46,	222.78,	4.65,	1.13,	4.49,	1.02,	5.81,	1.08,	6.36,	1.22,	1.14,	0.52,	0.96,	0.42,	1.00,	0.49,	1.08,	0.45,	124.72,	297.44,	169.83,	287.08,	166.72,	276.15,	179.72,	311.47,	167.09
01/10/2015,	19:00:00,	21.70,	20.50,	1029.97,	47.36,	0.46,	1163.50,	679.13,	1600.80,	222.25,	4.71,	1.12,	4.44,	1.06,	5.91,	1.12,	6.38,	1.20,	1.10,	0.52,	0.93,	0.41,	0.99,	0.45,	1.13,	0.52,	123.78,	297.42,	170.18,	285.58,	166.23,	277.59,	178.77,	310.44,	167.28
01/10/2015,	19:15:00,	21.63,	20.40,	1029.91,	47.56,	0.45,	1164.70,	681.46,	1602.98,	223.50,	4.69,	1.09,	4.43,	1.02,	5.89,	1.13,	6.42,	1.20,	1.11,	0.47,	0.93,	0.41,	1.01,	0.49,	1.13,	0.50,	123.82,	297.92,	170.03,	285.62,	167.55,	277.46,	179.61,	311.01,	167.61
01/10/2015,	19:30:00,	21.58,	20.30,	1030.15,	47.39,	0.46,	1165.69,	681.21,	1604.17,	223.08,	4.60,	1.11,	4.61,	1.06,	5.83,	1.14,	6.60,	1.32,	1.17,	0.56,	0.95,	0.43,	1.01,	0.50,	1.17,	0.54,	122.99,	297.98,	170.09,	287.43,	167.84,	276.67,	179.68,	311.14,	167.02
01/10/2015,	19:45:00,	21.48,	20.40,	1030.15,	47.16,	0.49,	1165.48,	681.59,	1603.75,	223.70,	4.65,	1.20,	4.55,	1.12,	5.86,	1.11,	6.52,	1.23,	1.12,	0.49,	0.96,	0.44,	1.05,	0.50,	1.12,	0.53,	123.37,	297.49,	170.49,	286.67,	167.25,	276.77,	179.23,	312.04,	168.02
01/10/2015,	20:00:00,	21.56,	20.40,	1030.46,	47.47,	0.46,	1159.31,	680.08,	1596.87,	222.71,	4.62,	1.08,	4.59,	0.97,	5.92,	1.16,	6.44,	1.20,	1.21,	0.52,	0.89,	0.40,	0.97,	0.46,	1.10,	0.52,	122.99,	295.85,	169.75,	284.96,	167.13,	276.23,	179.13,	309.66,	167.36
01/10/2015,	20:15:00,	21.48,	20.30,	1030.58,	47.76,	0.47,	1161.37,	680.12,	1599.66,	222.16,	4.72,	1.16,	4.53,	1.03,	5.81,	1.07,	6.47,	1.22,	1.17,	0.52,	0.88,	0.41,	0.98,	0.48,	1.03,	0.45,	123.77,	296.70,	170.19,	285.01,	167.33,	276.74,	178.70,	310.34,	167.18
01/10/2015,	20:30:00,	21.46,	20.40,	1030.70,	47.47,	0.44,	1161.91,	679.69,	1598.91,	223.09,	4.56,	1.13,	4.51,	1.04,	5.90,	1.08,	6.56,	1.24,	1.08,	0.49,	0.85,	0.37,	0.95,	0.47,	1.12,	0.48,	123.76,	296.64,	169.93,	285.40,	166.90,	276.66,	179.30,	310.56,	166.89
01/10/2015,	20:45:00,	21.48,	20.40,	1030.76,	47.53,	0.50,	1158.90,	677.37,	1594.97,	221.90,	4.67,	1.12,	4.42,	1.06,	5.82,	1.10,	6.44,	1.28,	1.16,	0.51,	0.91,	0.44,	0.99,	0.46,	1.10,	0.52,	122.99,	295.49,	169.08,	285.24,	166.08,	276.33,	178.04,	309.31,	167.57
01/10/2015,	21:00:00,	21.39,	20.40,	1031.25,	47.34,	0.46,	1158.91,	679.86,	1596.81,	222.57,	4.65,	1.13,	4.43,	1.03,	5.80,	1.17,	6.38,	1.23,	1.15,	0.49,	0.91,	0.40,	1.00,	0.48,	1.15,	0.53,	123.24,	296.41,	170.14,	285.04,	166.81,	275.92,	179.39,	309.03,	166.80
01/10/2015,	21:15:00,	21.46,	20.50,	1031.49,	47.60,	0.49,	1155.53,	678.58,	1592.37,	222.49,	4.55,	1.14,	4.44,	1.01,	5.65,	1.05,	6.40,	1.21,	1.21,	0.53,	0.88,	0.40,	0.99,	0.52,	1.09,	0.49,	123.70,	296.15,	169.79,	284.34,	166.68,	274.95,	178.98,	307.35,	166.48
01/10/2015,	21:30:00,	21.58,	20.50,	1031.74,	47.41,	0.46,	1156.86,	676.24,	1592.29,	221.61,	4.54,	1.14,	4.47,	1.01,	5.74,	1.10,	6.38,	1.22,	1.10,	0.50,	0.82,	0.36,	1.02,	0.48,	1.08,	0.48,	123.00,	296.95,	169.26,	284.04,	166.66,	275.31,	177.24,	308.06,	166.31
01/10/2015,	21:45:00,	21.73,	20.50,	1031.56,	47.50,	0.44,	1157.83,	678.62,	1594.26,	222.27,	4.71,	1.07,	4.61,	1.06,	5.83,	1.09,	6.60,	1.22,	1.12,	0.48,	0.93,	0.44,	0.97,	0.44,	1.10,	0.50,	123.38,	296.96,	169.11,	284.18,	168.00,	275.36,	178.66,	308.75,	166.12
01/10/2015,	22:00:00,	21.80,	20.50,	1031.62,	47.31,	0.45,	1172.30,	678.85,	1609.78,	222.00,	4.65,	1.08,	4.49,	1.00,	5.75,	1.09,	6.40,	1.22,	1.13,	0.49,	0.86,	0.41,	0.97,	0.50,	1.05,	0.47,	122.67,	305.10,	168.76,	287.62,	167.27,	278.10,	179.17,	308.86,	166.99
01/10/2015,	22:15:00,	21.85,	20.70,	1031.49,	47.30,	0.42,	1177.83,	677.61,	1614.09,	221.96,	4.58,	1.08,	4.39,	1.00,	5.79,	1.06,	6.37,	1.22,	1.13,	0.50,	0.89,	0.39,	0.98,	0.48,	1.07,	0.49,	123.41,	310.25,	168.90,	287.74,	165.84,	277.86,	179.20,	309.39,	166.92
01/10/2015,	22:30:00,	21.92,	20.70,	1031.49,	47.67,	0.43,	1177.79,	676.57,	1612.86,	221.91,	4.69,	1.10,	4.43,	1.01,	5.81,	1.08,	6.43,	1.18,	1.12,	0.48,	0.90,	0.41,	0.97,	0.50,	1.09,	0.49,	123.30,	310.96,	168.75,	288.21,	167.18,	277.58,	177.82,	308.50,	166.03
01/10/2015,	22:45:00,	21.85,	20.80,	1031.62,	47.29,	0.46,	1176.37,	677.75,	1613.18,	221.43,	4.51,	1.08,	4.56,	1.06,	5.78,	1.09,	6.46,	1.21,	1.13,	0.50,	0.85,	0.40,	0.97,	0.45,	1.14,	0.53,	123.08,	310.79,	169.05,	287.75,	166.97,	276.85,	178.76,	308.23,	166.32